Miscellaneous Local Product
Issued by NWS Hastings, NE

Home | Current Version | Previous Version | Graphics & Text | Print | Product List | Glossary On
Versions: 1 2 3 4 5 6 7 8 9 10 11 12 13 14 15 16 17 18 19 20 21 22 23 24 25 26 27 28 29 30 31 32 33 34 35 36 37 38 39 40 41 42 43 44 45 46 47 48 49 50
000
AXUS43 KGID 180302
MISGRI

GID CWA HOURLY WEATHER ROUNDUP
NATIONAL WEATHER SERVICE HASTINGS NE
900 PM CST WED DEC 17 2014

NOTE: "FAIR" INDICATES FEW OR NO CLOUDS BELOW 12,000 FEET WITH NO
SIGNIFICANT WEATHER AND/OR OBSTRUCTIONS TO VISIBILITY.

...SOUTH CENTRAL NEBRASKA...

CITY           SKY/WX    TMP DP  RH WIND       PRES   REMARKS
GRAND ISLAND   CLOUDY    24  18  77 SE7       30.20S WCI  16
HASTINGS       CLOUDY    25  18  74 SE5       30.17F WCI  19
KEARNEY        CLOUDY    25  19  80 E8        30.16F WCI  16
ORD            CLOUDY    23  20  88 SE3       30.17R
YORK           CLOUDY    25 N/A N/A SE8       30.22S WCI  16
AURORA         CLOUDY    25  19  78 SE7       30.20S WCI  17
LEXINGTON      CLOUDY    25  23  91 SE5       30.14S WCI  19
HOLDREGE       CLOUDY    24  21  87 E8        30.14F WCI  16
HEBRON         CLOUDY    28  19  68 E5        30.22S WCI  23

...NEBRASKA PANHANDLE...

CITY           SKY/WX    TMP DP  RH WIND       PRES   REMARKS
CHADRON        CLOUDY    15  12  88 SW6       30.03R FOG     WCI   6
ALLIANCE       FOG       22  20  92 S7        29.99S VSB 1/2 WCI  13
SCOTTSBLUFF    FOG       20  19  96 E3        30.00S VSB 1/4
SIDNEY         CLOUDY    22  19  89 SW10      29.99S FOG     WCI  11

...WESTERN AND NORTH CENTRAL NEBRASKA...

CITY           SKY/WX    TMP DP  RH WIND       PRES   REMARKS
VALENTINE      CLOUDY    22  20  92 S12       30.10S WCI  10
AINSWORTH      CLOUDY    20  19  96 S6        30.12R FOG     WCI  13
ONEILL         CLOUDY    22  20  93 S5        30.19R WCI  15
BROKEN BOW     CLOUDY    23  21  92 S7        30.13S WCI  15
IMPERIAL       CLOUDY    24  21  88 SE8       30.07S FOG     WCI  15
NORTH PLATTE   CLOUDY    22  20  92 S6        30.11S WCI  14
MCCOOK         CLOUDY    25  23  92 E6        30.12S FOG     WCI  18

...EASTERN NEBRASKA...

CITY           SKY/WX    TMP DP  RH WIND       PRES   REMARKS
NORFOLK        CLOUDY    25  17  72 SE8       30.22R WCI  16
SO SIOUX CITY  CLOUDY    24  17  74 E6        30.27S WCI  17
TEKAMAH        CLOUDY    28  19  69 E7        30.27R WCI  21
COLUMBUS       CLOUDY    25  14  63 SE8       30.24S WCI  16
ALBION         CLOUDY    24  18  75 SE6       30.21R WCI  17
OMAHA EPPLEY   CLOUDY    28  19  69 SE5       30.28R WCI  23
OFFUTT AFB     CLOUDY    28  19  68 E6        30.26R WCI  21
MILLARD        CLOUDY    28  18  64 E5        30.26S WCI  23
LINCOLN        CLOUDY    26  17  68 SE8       30.27R WCI  18
NEBRASKA CITY  CLOUDY    27  19  70 CALM      30.26S
BEATRICE       CLOUDY    27  20  76 E7        30.24S WCI  19
FALLS CITY     CLOUDY    29  22  75 E5        30.26S WCI  24

...NORTHERN KANSAS...

CITY           SKY/WX    TMP DP  RH WIND       PRES   REMARKS
GOODLAND       FOG       24  23  96 E8        30.05S VSB 1/2 WCI  15
HILL CITY      CLOUDY    27  22  81 E8        30.14S WCI  19
NORTON         CLOUDY    25  19  80 E6        30.13R WCI  18
PHILLIPSBURG   CLOUDY    28  23  80 E8        30.17R WCI  20
SMITH CENTER   MOCLDY    25  21  86 E8        30.19S WCI  16
BELOIT         CLOUDY    27  25  93 CALM      30.20R
HAYS           CLOUDY    28  19  69 NE9       30.13S WCI  20
RUSSELL        LGT SNOW  27  26  96 NE8       30.14S FOG     WCI  19
CONCORDIA      CLOUDY    27  20  75 SE8       30.20F WCI  19
SALINA         LGT SNOW  29  26  89 E9        30.19F FOG     WCI  20
TOPEKA         CLOUDY    31  22  69 E5        30.26R WCI  26



USA.gov is the U.S. government's official web portal to all federal, state and local government web resources and services.